HKE846 VHHH-RJFK

Flight info

Callsign HKE846
Flight time 2h 32m
Altitude 27000
Route DALOL V621 ELATO A1 APU G587 PABSO R583 BORDO Y74 KAORU Y26 YURIX Y62 BOMAP Y455 KINKO
Aircraft A320/M-SDE3FGHIRWY/LB1

Departure

Time 2026-05-08 11:26
Airport Hong Kong International Airport (VHHH)

Arrival

Time 2026-05-08 13:59
Airport Kagoshima Airport (RJFK)
Time Latitude Longitude Altitude Speed Heading
2026-05-08 11:08 22.31136 113.92599 34 ft 0 kts 116°
2026-05-08 11:16 22.31137 113.92596 35 ft 3 kts 116°
2026-05-08 11:16 22.31151 113.92571 34 ft 4 kts 126°
2026-05-08 11:17 22.31168 113.92549 35 ft 4 kts 136°
2026-05-08 11:17 22.31189 113.92531 35 ft 4 kts 147°
2026-05-08 11:17 22.31212 113.92516 35 ft 4 kts 155°
2026-05-08 11:17 22.31237 113.92505 33 ft 4 kts 152°
2026-05-08 11:18 22.31254 113.92491 35 ft 1 kts 116°
2026-05-08 11:21 22.31252 113.92495 35 ft 3 kts 116°
2026-05-08 11:21 22.31228 113.92519 35 ft 7 kts 166°
2026-05-08 11:21 22.31170 113.92497 35 ft 11 kts 208°
2026-05-08 11:21 22.31086 113.92451 35 ft 16 kts 204°
2026-05-08 11:22 22.30973 113.92396 35 ft 20 kts 205°
2026-05-08 11:22 22.30844 113.92329 35 ft 21 kts 206°
2026-05-08 11:22 22.30720 113.92361 35 ft 19 kts 163°
2026-05-08 11:22 22.30652 113.92427 34 ft 7 kts 69°
2026-05-08 11:23 22.30678 113.92493 35 ft 13 kts 72°
2026-05-08 11:23 22.30712 113.92608 33 ft 20 kts 71°
2026-05-08 11:23 22.30765 113.92775 35 ft 27 kts 71°
2026-05-08 11:23 22.30829 113.92967 33 ft 24 kts 70°
2026-05-08 11:24 22.30879 113.93131 35 ft 23 kts 71°
2026-05-08 11:24 22.30863 113.93222 35 ft 11 kts 159°
2026-05-08 11:24 22.30785 113.93248 35 ft 12 kts 162°
2026-05-08 11:24 22.30725 113.93215 35 ft 9 kts 251°
2026-05-08 11:25 22.30710 113.93167 35 ft 0 kts 251°
2026-05-08 11:25 22.30708 113.93160 35 ft 2 kts 251°
2026-05-08 11:25 22.30689 113.93100 35 ft 19 kts 251°
2026-05-08 11:25 22.30576 113.92751 35 ft 83 kts 251°
2026-05-08 11:26 22.30310 113.91929 35 ft 148 kts 251°
2026-05-08 11:26 22.29992 113.90971 88 ft 187 kts 249°
2026-05-08 11:26 22.29486 113.89582 625 ft 199 kts 250°
2026-05-08 11:26 22.29024 113.88149 1476 ft 201 kts 251°
2026-05-08 11:27 22.28593 113.86791 2034 ft 205 kts 248°
2026-05-08 11:27 22.27832 113.85439 2344 ft 216 kts 235°
2026-05-08 11:27 22.26970 113.84084 2869 ft 220 kts 236°
2026-05-08 11:27 22.26120 113.82738 3538 ft 221 kts 232°
2026-05-08 11:28 22.24958 113.81663 4153 ft 223 kts 205°
2026-05-08 11:28 22.23421 113.81260 4444 ft 243 kts 180°
2026-05-08 11:28 22.21716 113.81218 4976 ft 252 kts 180°
2026-05-08 11:28 22.19978 113.81480 5633 ft 256 kts 157°
2026-05-08 11:29 22.18499 113.82536 6304 ft 258 kts 133°
2026-05-08 11:29 22.17281 113.83983 6981 ft 262 kts 131°
2026-05-08 11:29 22.16153 113.85542 7646 ft 266 kts 117°
2026-05-08 11:29 22.15414 113.87382 8286 ft 270 kts 111°
2026-05-08 11:30 22.14709 113.89272 8846 ft 275 kts 112°
2026-05-08 11:30 22.13994 113.91192 8978 ft 276 kts 110°
2026-05-08 11:30 22.13597 113.93220 9031 ft 284 kts 95°
2026-05-08 11:30 22.13414 113.95402 9396 ft 297 kts 95°
2026-05-08 11:31 22.13220 113.97608 9967 ft 302 kts 95°
2026-05-08 11:31 22.13011 113.99918 10234 ft 320 kts 95°
2026-05-08 11:31 22.12791 114.02382 10364 ft 340 kts 95°
2026-05-08 11:31 22.12555 114.04987 10492 ft 359 kts 95°
2026-05-08 11:32 22.12244 114.07715 10718 ft 372 kts 98°
2026-05-08 11:32 22.11817 114.10482 11175 ft 377 kts 100°
2026-05-08 11:32 22.11324 114.13280 11678 ft 381 kts 101°
2026-05-08 11:32 22.10812 114.16037 11912 ft 383 kts 101°
2026-05-08 11:33 22.10288 114.18864 11952 ft 384 kts 101°
2026-05-08 11:33 22.09782 114.21652 11953 ft 384 kts 101°
2026-05-08 11:33 22.09280 114.24494 12253 ft 388 kts 101°
2026-05-08 11:33 22.08795 114.27356 12811 ft 389 kts 100°
2026-05-08 11:34 22.08315 114.30236 13317 ft 393 kts 100°
2026-05-08 11:34 22.07820 114.33156 13803 ft 395 kts 102°
2026-05-08 11:34 22.07010 114.35959 14259 ft 399 kts 114°
2026-05-08 11:34 22.05702 114.38600 14723 ft 401 kts 124°
2026-05-08 11:35 22.04126 114.41091 15169 ft 404 kts 125°
2026-05-08 11:35 22.02536 114.43597 15632 ft 407 kts 125°
2026-05-08 11:35 22.00938 114.46126 16066 ft 410 kts 125°
2026-05-08 11:35 21.99328 114.48676 16503 ft 413 kts 125°
2026-05-08 11:36 21.97714 114.51241 16940 ft 416 kts 125°
2026-05-08 11:36 21.96081 114.53822 17373 ft 418 kts 126°
2026-05-08 11:36 21.94961 114.55517 17655 ft 420 kts 127°
2026-05-08 11:36 21.93211 114.58051 18061 ft 423 kts 128°
2026-05-08 11:37 21.91418 114.60567 18467 ft 425 kts 129°
2026-05-08 11:37 21.89004 114.63907 19023 ft 428 kts 129°
2026-05-08 11:37 21.87174 114.66444 19441 ft 430 kts 129°
2026-05-08 11:37 21.85345 114.69002 19839 ft 432 kts 128°
2026-05-08 11:38 21.83519 114.71583 20235 ft 434 kts 128°
2026-05-08 11:38 21.82311 114.73298 20485 ft 435 kts 128°
2026-05-08 11:38 21.80479 114.75900 20842 ft 438 kts 128°
2026-05-08 11:38 21.78638 114.78513 21190 ft 440 kts 128°
2026-05-08 11:39 21.76860 114.81204 21540 ft 442 kts 121°
2026-05-08 11:39 21.75504 114.84184 21868 ft 445 kts 111°
2026-05-08 11:39 21.74663 114.87390 22178 ft 448 kts 100°
2026-05-08 11:39 21.74355 114.90726 22490 ft 449 kts 90°
2026-05-08 11:40 21.74360 114.94099 22793 ft 451 kts 90°
2026-05-08 11:40 21.74365 114.97481 23080 ft 453 kts 90°
2026-05-08 11:40 21.74369 115.00875 23358 ft 455 kts 90°
2026-05-08 11:40 21.74370 115.04284 23641 ft 457 kts 90°
2026-05-08 11:41 21.74366 115.07705 23921 ft 458 kts 90°
2026-05-08 11:41 21.74360 115.11080 24180 ft 460 kts 90°
2026-05-08 11:41 21.74352 115.14535 24446 ft 462 kts 90°
2026-05-08 11:41 21.74345 115.17993 24703 ft 463 kts 90°
2026-05-08 11:42 21.74338 115.21466 24941 ft 465 kts 90°
2026-05-08 11:42 21.74330 115.24950 25171 ft 467 kts 90°
2026-05-08 11:42 21.74323 115.28451 25419 ft 469 kts 90°
2026-05-08 11:42 21.74317 115.31952 25667 ft 470 kts 90°
2026-05-08 11:43 21.74322 115.35479 25896 ft 472 kts 89°
2026-05-08 11:43 21.74337 115.39014 26127 ft 474 kts 89°
2026-05-08 11:43 21.74341 115.42515 26372 ft 475 kts 90°
2026-05-08 11:43 21.74329 115.46064 26710 ft 474 kts 90°
2026-05-08 11:44 21.74308 115.49612 27016 ft 474 kts 90°
2026-05-08 11:44 21.74280 115.53161 27328 ft 474 kts 90°
2026-05-08 11:44 21.74254 115.56697 27666 ft 474 kts 90°
2026-05-08 11:44 21.74229 115.60243 27981 ft 473 kts 90°
2026-05-08 11:45 21.74210 115.63784 28319 ft 473 kts 90°
2026-05-08 11:45 21.74195 115.67315 28665 ft 472 kts 90°
2026-05-08 11:45 21.74183 115.70843 28997 ft 472 kts 90°
2026-05-08 11:45 21.74174 115.74375 29352 ft 472 kts 90°
2026-05-08 11:46 21.74166 115.77998 29721 ft 471 kts 90°
2026-05-08 11:46 21.74154 115.81515 30067 ft 471 kts 90°
2026-05-08 11:46 21.74137 115.85037 30391 ft 471 kts 90°
2026-05-08 11:46 21.74114 115.88555 30718 ft 471 kts 89°
2026-05-08 11:47 21.74091 115.92077 31049 ft 471 kts 89°
2026-05-08 11:47 21.74069 115.95601 31371 ft 471 kts 89°
2026-05-08 11:47 21.74051 115.99123 31691 ft 471 kts 89°
2026-05-08 11:47 21.74034 116.02649 32012 ft 472 kts 89°
2026-05-08 11:48 21.74016 116.06178 32337 ft 472 kts 89°
2026-05-08 11:48 21.73994 116.09705 32661 ft 472 kts 88°
2026-05-08 11:48 21.73972 116.13189 32911 ft 473 kts 88°
2026-05-08 11:49 21.73926 116.20332 32974 ft 485 kts 88°
2026-05-08 11:49 21.73867 116.27559 32971 ft 492 kts 88°
2026-05-08 11:50 21.73800 116.34927 32974 ft 493 kts 88°
2026-05-08 11:50 21.73743 116.42249 32972 ft 492 kts 88°
2026-05-08 11:51 21.73688 116.49598 32975 ft 492 kts 88°
2026-05-08 11:51 21.73627 116.56970 32984 ft 493 kts 88°
2026-05-08 11:52 21.74145 116.64241 32996 ft 485 kts 71°
2026-05-08 11:52 21.76143 116.71115 32988 ft 484 kts 69°
2026-05-08 11:53 21.78178 116.78019 32999 ft 484 kts 69°
2026-05-08 11:53 21.80210 116.84929 33002 ft 484 kts 70°
2026-05-08 11:54 21.82240 116.91844 33004 ft 484 kts 69°
2026-05-08 11:54 21.84274 116.98753 33008 ft 485 kts 70°
2026-05-08 11:55 21.86286 117.05631 33011 ft 485 kts 70°
2026-05-08 11:55 21.88299 117.12560 33018 ft 485 kts 70°
2026-05-08 11:56 21.90314 117.19486 33021 ft 485 kts 70°
2026-05-08 11:56 21.92292 117.26268 33018 ft 484 kts 70°
2026-05-08 11:57 21.94305 117.33182 33014 ft 484 kts 70°
2026-05-08 11:57 21.96300 117.40062 33014 ft 485 kts 70°
2026-05-08 11:58 21.98304 117.46995 33015 ft 485 kts 69°
2026-05-08 11:58 22.01154 117.53503 33015 ft 479 kts 55°
2026-05-08 11:59 22.06395 117.62680 33003 ft 480 kts 55°
2026-05-08 11:59 22.09873 117.68832 33004 ft 481 kts 55°
2026-05-08 12:00 22.13337 117.74950 33013 ft 482 kts 55°
2026-05-08 12:00 22.16826 117.81112 33012 ft 482 kts 55°
2026-05-08 12:01 22.20314 117.87281 33009 ft 481 kts 55°
2026-05-08 12:01 22.23799 117.93446 33005 ft 481 kts 55°
2026-05-08 12:02 22.27277 117.99622 33005 ft 481 kts 56°
2026-05-08 12:02 22.30767 118.05725 33004 ft 480 kts 54°
2026-05-08 12:03 22.34350 118.11807 33001 ft 480 kts 54°
2026-05-08 12:03 22.37935 118.17898 33000 ft 480 kts 54°
2026-05-08 12:04 22.41493 118.24012 32994 ft 481 kts 55°
2026-05-08 12:04 22.44983 118.30179 32990 ft 481 kts 55°
2026-05-08 12:05 22.48132 118.35794 32977 ft 482 kts 55°
2026-05-08 12:05 22.50334 118.39711 32979 ft 482 kts 55°
2026-05-08 12:06 22.53552 118.44985 32983 ft 479 kts 53°
2026-05-08 12:06 22.57049 118.51151 32989 ft 482 kts 57°
2026-05-08 12:07 22.60405 118.57455 32989 ft 484 kts 56°
2026-05-08 12:07 22.63874 118.63689 32987 ft 484 kts 54°
2026-05-08 12:08 22.67413 118.69835 32996 ft 485 kts 54°
2026-05-08 12:08 22.70985 118.76034 32997 ft 485 kts 54°
2026-05-08 12:09 22.74519 118.82268 32981 ft 486 kts 55°
2026-05-08 12:09 22.78040 118.88523 32993 ft 486 kts 55°
2026-05-08 12:10 22.81569 118.94772 32996 ft 487 kts 54°
2026-05-08 12:10 22.85093 119.00990 32983 ft 487 kts 54°
2026-05-08 12:11 22.89028 119.06899 32978 ft 482 kts 45°
2026-05-08 12:11 22.93407 119.12398 32995 ft 482 kts 45°
2026-05-08 12:12 22.97795 119.17893 32996 ft 482 kts 45°
2026-05-08 12:12 23.02182 119.23400 33000 ft 482 kts 45°
2026-05-08 12:13 23.06541 119.28879 33000 ft 483 kts 45°
2026-05-08 12:13 23.10926 119.34408 33000 ft 483 kts 45°
2026-05-08 12:14 23.15311 119.39938 32997 ft 483 kts 44°
2026-05-08 12:14 23.19712 119.45483 32979 ft 486 kts 44°
2026-05-08 12:15 23.24130 119.51056 32985 ft 487 kts 44°
2026-05-08 12:15 23.28528 119.56619 32992 ft 489 kts 44°
2026-05-08 12:16 23.32958 119.62242 32995 ft 490 kts 44°
2026-05-08 12:16 23.37402 119.67870 32982 ft 491 kts 44°
2026-05-08 12:17 23.41851 119.73505 32988 ft 491 kts 44°
2026-05-08 12:17 23.46293 119.79152 32986 ft 492 kts 44°
2026-05-08 12:18 23.50697 119.84760 32982 ft 492 kts 44°
2026-05-08 12:18 23.55124 119.90389 32997 ft 493 kts 44°
2026-05-08 12:19 23.59583 119.96070 32998 ft 493 kts 44°
2026-05-08 12:19 23.64036 120.01755 32996 ft 493 kts 44°
2026-05-08 12:20 23.68499 120.07450 32996 ft 494 kts 44°
2026-05-08 12:20 23.72957 120.13155 32998 ft 494 kts 44°
2026-05-08 12:21 23.77380 120.18833 33000 ft 494 kts 44°
2026-05-08 12:21 23.81833 120.24547 33005 ft 494 kts 44°
2026-05-08 12:22 23.86295 120.30262 33005 ft 494 kts 44°
2026-05-08 12:22 23.90746 120.35974 33008 ft 494 kts 44°
2026-05-08 12:23 23.95203 120.41704 33013 ft 494 kts 44°
2026-05-08 12:23 23.99617 120.47397 33019 ft 494 kts 44°
2026-05-08 12:24 24.04061 120.53134 33019 ft 495 kts 44°
2026-05-08 12:24 24.08513 120.58877 33016 ft 495 kts 44°
2026-05-08 12:25 24.12837 120.64450 33018 ft 495 kts 44°
2026-05-08 12:25 24.17272 120.70183 33019 ft 496 kts 44°
2026-05-08 12:26 24.21692 120.75917 33020 ft 496 kts 44°
2026-05-08 12:26 24.26148 120.81701 33023 ft 497 kts 44°
2026-05-08 12:27 24.30601 120.87482 33026 ft 497 kts 44°
2026-05-08 12:27 24.35060 120.93272 33041 ft 496 kts 44°
2026-05-08 12:28 24.39509 120.99054 33031 ft 496 kts 44°
2026-05-08 12:28 24.43956 121.04855 33036 ft 497 kts 45°
2026-05-08 12:29 24.48368 121.10635 33051 ft 497 kts 45°
2026-05-08 12:29 24.52808 121.16439 33055 ft 496 kts 45°
2026-05-08 12:30 24.57236 121.22217 33057 ft 495 kts 45°
2026-05-08 12:30 24.61666 121.28006 33055 ft 495 kts 45°
2026-05-08 12:31 24.65723 121.33328 33063 ft 494 kts 44°
2026-05-08 12:31 24.70128 121.39068 33063 ft 495 kts 45°
2026-05-08 12:32 24.74508 121.44852 33066 ft 495 kts 45°
2026-05-08 12:32 24.78913 121.50679 33067 ft 495 kts 45°
2026-05-08 12:33 24.83331 121.56502 33068 ft 495 kts 45°
2026-05-08 12:33 24.87751 121.62313 33071 ft 495 kts 45°
2026-05-08 12:34 24.92138 121.68105 33063 ft 496 kts 45°
2026-05-08 12:34 24.96541 121.73935 33062 ft 495 kts 45°
2026-05-08 12:35 25.00960 121.79785 33064 ft 496 kts 45°
2026-05-08 12:35 25.05379 121.85637 33064 ft 497 kts 45°
2026-05-08 12:36 25.09767 121.91457 33060 ft 496 kts 44°
2026-05-08 12:36 25.14187 121.97328 33065 ft 497 kts 45°
2026-05-08 12:37 25.18609 122.03210 33069 ft 498 kts 45°
2026-05-08 12:37 25.23030 122.09097 33076 ft 498 kts 45°
2026-05-08 12:38 25.27440 122.14981 33076 ft 498 kts 45°
2026-05-08 12:38 25.31805 122.20810 33069 ft 498 kts 45°
2026-05-08 12:39 25.36193 122.26677 33065 ft 498 kts 45°
2026-05-08 12:39 25.40572 122.32545 33062 ft 498 kts 45°
2026-05-08 12:40 25.44932 122.38385 33063 ft 499 kts 45°
2026-05-08 12:40 25.49113 122.43989 33065 ft 499 kts 45°
2026-05-08 12:41 25.53521 122.49919 33560 ft 498 kts 45°
2026-05-08 12:41 25.55712 122.52875 33926 ft 497 kts 45°
2026-05-08 12:41 25.57905 122.55840 34268 ft 497 kts 45°
2026-05-08 12:42 25.60097 122.58799 34606 ft 496 kts 45°
2026-05-08 12:42 25.62286 122.61749 34948 ft 495 kts 44°
2026-05-08 12:42 25.64473 122.64691 35278 ft 494 kts 44°
2026-05-08 12:42 25.66658 122.67632 35583 ft 494 kts 44°
2026-05-08 12:43 25.68808 122.70527 35894 ft 493 kts 44°
2026-05-08 12:43 25.70983 122.73459 36175 ft 492 kts 44°
2026-05-08 12:43 25.73153 122.76388 36464 ft 491 kts 44°
2026-05-08 12:43 25.75317 122.79316 36710 ft 491 kts 44°
2026-05-08 12:44 25.77478 122.82249 36989 ft 490 kts 44°
2026-05-08 12:44 25.79627 122.85168 37064 ft 489 kts 44°
2026-05-08 12:44 25.83982 122.91053 37062 ft 494 kts 44°
2026-05-08 12:45 25.88335 122.96948 37064 ft 494 kts 44°
2026-05-08 12:45 25.92651 123.02802 37045 ft 493 kts 44°
2026-05-08 12:46 25.97069 123.08614 37043 ft 492 kts 43°
2026-05-08 12:46 26.01515 123.14401 37050 ft 493 kts 43°
2026-05-08 12:47 26.05875 123.20137 37029 ft 494 kts 43°
2026-05-08 12:47 26.10276 123.25948 37025 ft 495 kts 43°
2026-05-08 12:48 26.14708 123.31824 37029 ft 496 kts 43°
2026-05-08 12:48 26.19156 123.37707 37041 ft 497 kts 43°
2026-05-08 12:49 26.23610 123.43601 37047 ft 497 kts 43°
2026-05-08 12:49 26.28054 123.49497 37060 ft 497 kts 43°
2026-05-08 12:50 26.32464 123.55364 37069 ft 497 kts 43°
2026-05-08 12:50 26.36911 123.61271 37073 ft 497 kts 43°
2026-05-08 12:51 26.43570 123.70140 37076 ft 497 kts 43°
2026-05-08 12:52 26.47947 123.76002 37079 ft 498 kts 43°
2026-05-08 12:52 26.54568 123.84860 37083 ft 497 kts 43°
2026-05-08 12:53 26.58931 123.90697 37080 ft 497 kts 43°
2026-05-08 12:53 26.63222 123.96448 37077 ft 497 kts 43°
2026-05-08 12:54 26.67650 124.02384 37073 ft 497 kts 43°
2026-05-08 12:54 26.72089 124.08320 37077 ft 497 kts 43°
2026-05-08 12:55 26.76479 124.14196 37078 ft 498 kts 43°
2026-05-08 12:55 26.80886 124.20103 37071 ft 498 kts 43°
2026-05-08 12:56 26.85322 124.26052 37065 ft 498 kts 43°
2026-05-08 12:56 26.89753 124.32019 37054 ft 498 kts 43°
2026-05-08 12:57 26.94167 124.37962 37050 ft 499 kts 43°
2026-05-08 12:57 26.98603 124.43940 37053 ft 499 kts 43°
2026-05-08 12:58 27.02657 124.49414 37053 ft 499 kts 43°
2026-05-08 12:58 27.07074 124.55369 37056 ft 500 kts 43°
2026-05-08 12:59 27.11510 124.61383 37059 ft 500 kts 43°
2026-05-08 12:59 27.15950 124.67398 37056 ft 500 kts 43°
2026-05-08 13:00 27.20394 124.73414 37055 ft 500 kts 43°
2026-05-08 13:00 27.24798 124.79408 37058 ft 501 kts 44°
2026-05-08 13:01 27.29234 124.85446 37065 ft 501 kts 44°
2026-05-08 13:01 27.33675 124.91491 37068 ft 501 kts 44°
2026-05-08 13:02 27.38116 124.97541 37064 ft 501 kts 44°
2026-05-08 13:02 27.42564 125.03588 37066 ft 502 kts 43°
2026-05-08 13:03 27.47015 125.09580 37065 ft 502 kts 43°
2026-05-08 13:03 27.51492 125.15611 37066 ft 503 kts 43°
2026-05-08 13:04 27.55968 125.21662 37078 ft 503 kts 43°
2026-05-08 13:04 27.60448 125.27731 37102 ft 503 kts 44°
2026-05-08 13:05 27.64917 125.33801 37092 ft 504 kts 44°
2026-05-08 13:05 27.69364 125.39857 37092 ft 504 kts 44°
2026-05-08 13:06 27.73844 125.45951 37103 ft 505 kts 44°
2026-05-08 13:06 27.78331 125.52054 37101 ft 505 kts 44°
2026-05-08 13:07 27.82817 125.58167 37106 ft 506 kts 44°
2026-05-08 13:07 27.87271 125.64252 37112 ft 506 kts 44°
2026-05-08 13:08 27.91755 125.70389 37115 ft 506 kts 44°
2026-05-08 13:08 27.96240 125.76529 37111 ft 506 kts 44°
2026-05-08 13:09 28.00725 125.82677 37112 ft 507 kts 44°
2026-05-08 13:09 28.05209 125.88838 37105 ft 507 kts 44°
2026-05-08 13:10 28.09662 125.94960 37108 ft 507 kts 44°
2026-05-08 13:10 28.14021 126.00956 37115 ft 508 kts 44°
2026-05-08 13:11 28.18508 126.07152 37112 ft 508 kts 44°
2026-05-08 13:11 28.22981 126.13352 37111 ft 508 kts 44°
2026-05-08 13:12 28.27458 126.19544 37111 ft 508 kts 44°
2026-05-08 13:12 28.31904 126.25706 37106 ft 508 kts 45°
2026-05-08 13:13 28.36377 126.31914 37102 ft 508 kts 44°
2026-05-08 13:13 28.40850 126.38133 37106 ft 509 kts 45°
2026-05-08 13:14 28.45320 126.44363 37107 ft 509 kts 45°
2026-05-08 13:14 28.49790 126.50595 37115 ft 509 kts 45°
2026-05-08 13:15 28.54239 126.56806 37110 ft 510 kts 45°
2026-05-08 13:15 28.58719 126.63060 37111 ft 510 kts 45°
2026-05-08 13:16 28.63206 126.69327 37105 ft 511 kts 45°
2026-05-08 13:16 28.67678 126.75610 37095 ft 512 kts 45°
2026-05-08 13:17 28.72159 126.81916 37095 ft 512 kts 45°
2026-05-08 13:17 28.76613 126.88180 37094 ft 513 kts 45°
2026-05-08 13:18 28.81102 126.94508 37097 ft 513 kts 45°
2026-05-08 13:18 28.85589 127.00834 37092 ft 514 kts 45°
2026-05-08 13:19 28.90056 127.07141 37092 ft 514 kts 45°
2026-05-08 13:19 28.94500 127.13430 37095 ft 514 kts 45°
2026-05-08 13:20 28.98991 127.19803 37099 ft 515 kts 45°
2026-05-08 13:20 29.03479 127.26179 37093 ft 515 kts 46°
2026-05-08 13:21 29.07965 127.32551 37101 ft 515 kts 46°
2026-05-08 13:21 29.12458 127.38937 37101 ft 516 kts 46°
2026-05-08 13:22 29.16952 127.45341 37091 ft 516 kts 46°
2026-05-08 13:22 29.21302 127.51564 37092 ft 517 kts 46°
2026-05-08 13:23 29.25796 127.57988 37101 ft 517 kts 46°
2026-05-08 13:23 29.30285 127.64425 37091 ft 517 kts 46°
2026-05-08 13:24 29.34740 127.70818 37101 ft 518 kts 46°
2026-05-08 13:24 29.39237 127.77282 37093 ft 519 kts 46°
2026-05-08 13:25 29.43702 127.83708 37101 ft 519 kts 46°
2026-05-08 13:25 29.48202 127.90198 37096 ft 520 kts 46°
2026-05-08 13:26 29.52701 127.96698 37097 ft 520 kts 46°
2026-05-08 13:26 29.57202 128.03208 37104 ft 521 kts 47°
2026-05-08 13:27 29.61707 128.09728 37104 ft 521 kts 46°
2026-05-08 13:27 29.66184 128.16208 37106 ft 521 kts 47°
2026-05-08 13:28 29.70689 128.22749 37103 ft 522 kts 47°
2026-05-08 13:28 29.75198 128.29299 37105 ft 522 kts 47°
2026-05-08 13:29 29.79707 128.35866 37102 ft 523 kts 47°
2026-05-08 13:29 29.84188 128.42403 37115 ft 523 kts 47°
2026-05-08 13:30 29.88699 128.48974 37114 ft 523 kts 47°
2026-05-08 13:30 29.93142 128.55481 37091 ft 514 kts 47°
2026-05-08 13:31 29.97485 128.61881 37101 ft 510 kts 47°
2026-05-08 13:31 30.01860 128.68313 37099 ft 511 kts 47°
2026-05-08 13:32 30.06265 128.74773 37093 ft 513 kts 47°
2026-05-08 13:32 30.10686 128.81262 37100 ft 514 kts 47°
2026-05-08 13:33 30.15091 128.87765 37074 ft 517 kts 42°
2026-05-08 13:33 30.19399 128.94112 36974 ft 533 kts 42°
2026-05-08 13:34 30.21720 128.97525 36731 ft 546 kts 42°
2026-05-08 13:34 30.24073 129.00994 36506 ft 547 kts 48°
2026-05-08 13:34 30.26387 129.04439 36247 ft 536 kts 48°
2026-05-08 13:34 30.28640 129.07820 35997 ft 526 kts 49°
2026-05-08 13:35 30.30871 129.11165 35740 ft 525 kts 49°
2026-05-08 13:35 30.33112 129.14516 35495 ft 526 kts 49°
2026-05-08 13:35 30.35356 129.17860 35247 ft 527 kts 49°
2026-05-08 13:35 30.37581 129.21163 35002 ft 528 kts 49°
2026-05-08 13:36 30.39839 129.24513 34754 ft 528 kts 49°
2026-05-08 13:36 30.42091 129.27859 34510 ft 529 kts 49°
2026-05-08 13:36 30.44353 129.31226 34258 ft 530 kts 50°
2026-05-08 13:36 30.46612 129.34596 34009 ft 531 kts 50°
2026-05-08 13:37 30.48869 129.37974 33744 ft 531 kts 50°
2026-05-08 13:37 30.51136 129.41370 32913 ft 536 kts 50°
2026-05-08 13:37 30.53426 129.44799 32005 ft 541 kts 47°
2026-05-08 13:37 30.55761 129.48293 31106 ft 556 kts 46°
2026-05-08 13:38 30.58173 129.51895 30141 ft 573 kts 46°
2026-05-08 13:38 30.60644 129.55587 28998 ft 585 kts 46°
2026-05-08 13:38 30.63113 129.59284 28395 ft 599 kts 47°
2026-05-08 13:38 30.65589 129.63021 29516 ft 551 kts 49°
2026-05-08 13:39 30.67936 129.66577 29573 ft 566 kts 46°
2026-05-08 13:39 30.70399 129.70282 28985 ft 591 kts 45°
2026-05-08 13:39 30.72114 129.72856 28579 ft 596 kts 49°
2026-05-08 13:39 30.74543 129.76520 29180 ft 562 kts 49°
2026-05-08 13:40 30.76679 129.79762 29016 ft 558 kts 47°
2026-05-08 13:40 30.79897 129.84612 28174 ft 570 kts 45°
2026-05-08 13:40 30.81662 129.86821 27735 ft 556 kts 38°
2026-05-08 13:40 30.84658 129.89482 27058 ft 530 kts 25°
2026-05-08 13:41 30.87886 129.91297 26389 ft 503 kts 12°
2026-05-08 13:41 30.91171 129.92298 25669 ft 475 kts
2026-05-08 13:41 30.94977 129.92756 24806 ft 451 kts 356°
2026-05-08 13:41 30.98046 129.93095 24171 ft 436 kts 356°
2026-05-08 13:42 31.00063 129.93325 23783 ft 425 kts 356°
2026-05-08 13:42 31.02959 129.93656 23208 ft 412 kts 356°
2026-05-08 13:42 31.05727 129.93967 22642 ft 400 kts 356°
2026-05-08 13:42 31.08469 129.94269 22067 ft 392 kts 356°
2026-05-08 13:43 31.11172 129.94560 21489 ft 388 kts 356°
2026-05-08 13:43 31.13867 129.94845 20932 ft 389 kts 356°
2026-05-08 13:43 31.16561 129.95129 20346 ft 389 kts 357°
2026-05-08 13:43 31.19255 129.95416 19772 ft 389 kts 357°
2026-05-08 13:44 31.21952 129.95710 19197 ft 388 kts 358°
2026-05-08 13:44 31.24636 129.96014 18621 ft 389 kts 360°
2026-05-08 13:44 31.27140 129.96696 18072 ft 399 kts 15°
2026-05-08 13:44 31.29604 129.98276 17494 ft 409 kts 32°
2026-05-08 13:45 31.31621 130.00643 16918 ft 415 kts 48°
2026-05-08 13:45 31.33374 130.03308 16335 ft 409 kts 49°
2026-05-08 13:45 31.35050 130.05873 15767 ft 397 kts 49°
2026-05-08 13:45 31.36481 130.08061 15291 ft 388 kts 49°
2026-05-08 13:46 31.37916 130.10249 15087 ft 372 kts 49°
2026-05-08 13:46 31.39428 130.12545 15053 ft 367 kts 48°
2026-05-08 13:46 31.40995 130.14902 15064 ft 367 kts 48°
2026-05-08 13:46 31.42549 130.17235 15062 ft 366 kts 48°
2026-05-08 13:47 31.44116 130.19584 15064 ft 366 kts 48°
2026-05-08 13:47 31.45680 130.21925 15066 ft 365 kts 48°
2026-05-08 13:47 31.47244 130.24269 15061 ft 365 kts 48°
2026-05-08 13:47 31.48808 130.26622 15061 ft 365 kts 48°
2026-05-08 13:48 31.50316 130.28899 15061 ft 365 kts 48°
2026-05-08 13:48 31.51860 130.31230 14698 ft 365 kts 48°
2026-05-08 13:48 31.53415 130.33581 14273 ft 364 kts 48°
2026-05-08 13:48 31.54967 130.35925 13790 ft 365 kts 49°
2026-05-08 13:49 31.56523 130.38277 13263 ft 365 kts 49°
2026-05-08 13:49 31.58037 130.40569 12760 ft 354 kts 49°
2026-05-08 13:49 31.59537 130.42847 12286 ft 344 kts 49°
2026-05-08 13:49 31.60961 130.45011 11815 ft 335 kts 49°
2026-05-08 13:50 31.62367 130.47149 11340 ft 327 kts 49°
2026-05-08 13:50 31.63740 130.49233 10816 ft 320 kts 49°
2026-05-08 13:50 31.64786 130.50818 10408 ft 315 kts 49°
2026-05-08 13:50 31.65601 130.52223 10070 ft 305 kts 58°
2026-05-08 13:51 31.66707 130.54253 9549 ft 297 kts 49°
2026-05-08 13:51 31.67926 130.56182 9023 ft 294 kts 53°
2026-05-08 13:51 31.68794 130.58346 8489 ft 295 kts 71°
2026-05-08 13:51 31.68984 130.60741 7958 ft 296 kts 94°
2026-05-08 13:52 31.68503 130.63083 7438 ft 296 kts 105°
2026-05-08 13:52 31.67896 130.65341 6918 ft 292 kts 105°
2026-05-08 13:52 31.67285 130.67599 6400 ft 289 kts 105°
2026-05-08 13:52 31.66683 130.69835 5909 ft 284 kts 105°
2026-05-08 13:53 31.66099 130.72025 5488 ft 278 kts 105°
2026-05-08 13:53 31.65529 130.74170 5050 ft 273 kts 105°
2026-05-08 13:53 31.64971 130.76276 4635 ft 268 kts 105°
2026-05-08 13:53 31.64434 130.78299 4483 ft 251 kts 105°
2026-05-08 13:54 31.64210 130.80197 4413 ft 222 kts 73°
2026-05-08 13:54 31.64920 130.81652 4106 ft 202 kts 31°
2026-05-08 13:54 31.66190 130.82013 3824 ft 185 kts 344°
2026-05-08 13:54 31.67179 130.81195 3589 ft 171 kts 309°
2026-05-08 13:55 31.67979 130.80267 3401 ft 159 kts 330°
2026-05-08 13:55 31.68940 130.79670 3190 ft 159 kts 328°
2026-05-08 13:55 31.70775 130.78407 2779 ft 151 kts 329°
2026-05-08 13:56 31.71672 130.77799 2579 ft 148 kts 329°
2026-05-08 13:56 31.72556 130.77201 2385 ft 147 kts 329°
2026-05-08 13:56 31.73440 130.76603 2199 ft 146 kts 329°
2026-05-08 13:56 31.74313 130.76013 1999 ft 144 kts 329°
2026-05-08 13:57 31.75147 130.75452 1821 ft 144 kts 329°
2026-05-08 13:57 31.76005 130.74881 1623 ft 144 kts 330°
2026-05-08 13:57 31.76862 130.74297 1446 ft 142 kts 327°
2026-05-08 13:57 31.77709 130.73722 1269 ft 144 kts 330°
2026-05-08 13:58 31.78559 130.73159 1076 ft 144 kts 328°
2026-05-08 13:58 31.79292 130.72647 941 ft 146 kts 329°
2026-05-08 13:58 31.79798 130.72305 906 ft 142 kts 327°
2026-05-08 13:58 31.80405 130.71874 905 ft 114 kts 331°
2026-05-08 13:59 31.80841 130.71585 901 ft 87 kts 330°
2026-05-08 13:59 31.81151 130.71368 902 ft 35 kts 329°
2026-05-08 13:59 31.81348 130.71230 902 ft 33 kts 329°
2026-05-08 13:59 31.81486 130.71079 899 ft 28 kts 273°
2026-05-08 14:00 31.81360 130.71025 892 ft 15 kts 144°
2026-05-08 14:00 31.81266 130.71089 892 ft 17 kts 152°
2026-05-08 14:00 31.81161 130.71150 892 ft 18 kts 150°
2026-05-08 14:00 31.81047 130.71229 892 ft 20 kts 150°
2026-05-08 14:01 31.80922 130.71313 891 ft 22 kts 150°
2026-05-08 14:01 31.80785 130.71406 891 ft 23 kts 149°
2026-05-08 14:01 31.80648 130.71503 891 ft 22 kts 149°
2026-05-08 14:01 31.80553 130.71565 891 ft 14 kts 153°
2026-05-08 14:02 31.80487 130.71585 891 ft 9 kts 219°
2026-05-08 14:02 31.80455 130.71511 890 ft 11 kts 240°
2026-05-08 14:02 31.80435 130.71468 890 ft 0 kts 240°
2026-05-08 14:02 31.80434 130.71468 890 ft 0 kts 240°